[Date Prev][Date Next][Thread Prev][Thread Next] - [Date Index][Thread Index][Author Index]
2 Line ISS Keps 10-6
- Subject: [sarex] 2 Line ISS Keps 10-6
- From: "Dave Larsen PhD" <doc@xxxxxxxxxxx>
- Date: Thu, 6 Oct 2005 05:48:39 -0700
ISS
1 25544U 98067A 05279.45879072 .00017894 00000-0 12840-3 0 4953
2 25544 051.6440 050.9560 0001814 093.5926 311.1885 15.73749003393196
----
Via the sarex mailing list at AMSAT.ORG courtesy of AMSAT-NA.
To unsubscribe, send "unsubscribe sarex" to Majordomo@amsat.org
AMSAT Home